Weather History for KTZR - March, 2014

Change the Weather History Date:

Sunday, March 2, 2014

  Actual Average Record
Temperature  
Mean Temperature 23 °F -  
Max Temperature 32 °F 43 °F 59 °F (2004)
Min Temperature 14 °F 28 °F 12 °F (2009)
Degree Days  
Heating Degree Days 42    
Moisture  
Dew Point 18 °F    
Average Humidity 81    
Maximum Humidity 93    
Minimum Humidity 68    
Precipitation  
Precipitation 0.00 in - - ()
Sea Level Pressure  
Sea Level Pressure 30.17 in    
Wind  
Wind Speed 12 mph (North)    
Max Wind Speed 15 mph    
Max Gust Speed 22 mph    
Visibility 7 miles    
Events Snow    
Averages and records for this station are not official NWS values.
T = Trace of Precipitation, MM = Missing Value Source: NWS Daily Summary

Daily Weather History Graph

Daily Weather History Graph

Search for Another Location

Airport or City:

Trip Planner

Search our weather history database for the weather conditions in past years. The results will help you decide how hot, cold, wet, or windy it might be!

Date:

Astronomy

Mar. 02, 2014 Rise Set
Actual Time 7:04 AM EST 6:25 PM EST
Civil Twilight 6:37 AM EST 6:52 PM EST
Nautical Twilight 6:05 AM EST 7:24 PM EST
Astronomical Twilight 5:34 AM EST 7:55 PM EST
Moon 7:35 AM EST (3/2) 8:20 PM EST (3/2)
Length of Visible Light 12h 15m
Length of Day
11h 21m
Waxing Crescent, 3% of the Moon is Illuminated
Mar 2
Waxing Crescent
Mar 8
First Quarter
Mar 16
Full
Mar 23
Last Quarter
Mar 30
New

Hourly Weather History & Observations

Time (EST) Temp. Windchill Dew Point Humidity Pressure Visibility Wind Dir Wind Speed Gust Speed Precip Events Conditions
12:15 AM 32.9 °F 22.8 °F 24.4 °F 71% 30.15 in 10.0 mi North 15.0 mph - N/A   Overcast
12:35 AM 32.2 °F 21.8 °F 24.6 °F 74% 30.15 in 10.0 mi NNW 15.0 mph 20.7 mph N/A   Overcast
12:55 AM 32.0 °F 22.5 °F 25.3 °F 76% 30.15 in 10.0 mi NNW 12.7 mph - N/A   Overcast
1:15 AM 31.8 °F 22.3 °F 26.1 °F 79% 30.14 in 7.0 mi North 12.7 mph 17.3 mph N/A   Overcast
1:35 AM 31.5 °F 22.3 °F 26.2 °F 81% 30.14 in 7.0 mi North 11.5 mph - N/A   Overcast
1:55 AM 31.3 °F 22.1 °F 25.9 °F 80% 30.14 in 7.0 mi North 11.5 mph - N/A   Overcast
2:15 AM 31.1 °F 22.4 °F 26.1 °F 82% 30.13 in 7.0 mi North 10.4 mph - N/A   Overcast
2:35 AM 30.7 °F 22.0 °F 25.7 °F 82% 30.13 in 7.0 mi North 10.4 mph - N/A   Overcast
2:55 AM 30.0 °F 21.7 °F 26.2 °F 86% 30.13 in 7.0 mi North 9.2 mph - N/A   Overcast
3:15 AM 29.8 °F 22.2 °F 25.7 °F 85% 30.12 in 7.0 mi North 8.1 mph - N/A   Overcast
3:35 AM 29.7 °F 20.1 °F 25.7 °F 85% 30.13 in 7.0 mi North 11.5 mph - N/A   Overcast
3:55 AM 29.1 °F 19.4 °F 25.3 °F 86% 30.14 in 10.0 mi NNW 11.5 mph - N/A   Overcast
4:15 AM 28.6 °F 18.7 °F 25.3 °F 88% 30.15 in 10.0 mi NNW 11.5 mph - N/A   Overcast
4:35 AM 28.2 °F 21.0 °F 25.2 °F 88% 30.16 in 10.0 mi NNW 6.9 mph - N/A   Overcast
4:55 AM 27.5 °F 18.6 °F 25.2 °F 91% 30.15 in 5.0 mi NNW 9.2 mph - N/A   Overcast
5:15 AM 27.5 °F - 25.3 °F 92% 30.15 in 7.0 mi North - - N/A   Overcast
5:35 AM 27.0 °F - 24.8 °F 92% 30.14 in 7.0 mi North - - N/A Snow Light Snow
5:55 AM 27.0 °F - 24.8 °F 92% 30.14 in 7.0 mi North - - N/A   Overcast
6:15 AM 26.6 °F - 24.4 °F 92% 30.15 in 5.0 mi North - - N/A Snow Light Snow
7:30 AM 24.8 °F 13.4 °F 21.2 °F 86% 30.15 in 2.0 mi North 12.7 mph - N/A Snow Light Snow
7:50 AM 24.8 °F 14.6 °F 21.2 °F 86% 30.16 in 2.0 mi North 10.4 mph - N/A Snow Light Snow
8:50 AM 23.0 °F 14.7 °F 21.2 °F 93% 30.16 in 2.0 mi NW 6.9 mph - N/A Snow Light Snow
9:50 AM 24.8 °F 14.6 °F 21.2 °F 86% 30.17 in 2.0 mi North 10.4 mph - N/A Snow Light Snow
10:58 AM 21.2 °F 13.6 °F 19.4 °F 93% 30.16 in 0.5 mi North 5.8 mph - N/A Snow Light Snow
11:55 AM 21.2 °F 8.9 °F 17.6 °F 86% 30.16 in 1.0 mi NNE 12.7 mph - N/A Snow Light Snow
12:50 PM 23.0 °F 11.7 °F 17.6 °F 80% 30.16 in 4.0 mi North 11.5 mph - N/A Snow Light Snow
1:50 PM 23.0 °F 13.9 °F 17.6 °F 80% 30.15 in 7.0 mi North 8.1 mph - N/A   Overcast
2:55 PM 24.8 °F 15.3 °F 17.6 °F 74% 30.15 in 7.0 mi NNW 9.2 mph - N/A   Overcast
3:47 PM 23.0 °F 10.6 °F 15.8 °F 74% 30.15 in 10.0 mi NNW 13.8 mph - N/A   Overcast
4:47 PM 21.2 °F 8.9 °F 12.2 °F 68% 30.17 in 10.0 mi North 12.7 mph - N/A   Overcast
5:47 PM 19.4 °F 5.5 °F 12.2 °F 74% 30.18 in 10.0 mi North 15.0 mph - N/A   Overcast
6:35 PM 18.7 °F 7.0 °F 11.8 °F 75% 30.19 in 10.0 mi NNW 10.4 mph - N/A   Overcast
6:47 PM 17.6 °F 4.3 °F 12.2 °F 79% 30.19 in 10.0 mi NNW 12.7 mph - N/A   Overcast
6:55 PM 18.1 °F 5.0 °F 11.7 °F 76% 30.19 in 10.0 mi NNW 12.7 mph - N/A   Overcast
7:15 PM 17.6 °F 4.3 °F 11.5 °F 77% 30.19 in 7.0 mi North 12.7 mph - N/A Snow Light Snow
7:35 PM 17.1 °F 5.0 °F 11.8 °F 80% 30.20 in 3.0 mi NNW 10.4 mph - N/A Snow Light Snow
7:55 PM 16.7 °F 3.8 °F 12.0 °F 82% 30.19 in 4.0 mi NNW 11.5 mph - N/A Snow Light Snow
8:15 PM 16.5 °F 4.3 °F 12.0 °F 82% 30.19 in 5.0 mi North 10.4 mph - N/A Snow Light Snow
8:35 PM 15.8 °F 1.4 °F 11.3 °F 82% 30.20 in 5.0 mi North 13.8 mph - N/A Snow Light Snow
8:50 PM 15.4 °F 1.6 °F 11.1 °F 83% 30.19 in 5.0 mi North 12.7 mph - N/A Snow Light Snow
9:15 PM 15.4 °F 2.3 °F 9.9 °F 79% 30.20 in 10.0 mi North 11.5 mph 17.3 mph N/A   Overcast
9:35 PM 15.4 °F 2.3 °F 9.3 °F 77% 30.21 in 10.0 mi North 11.5 mph - N/A   Overcast
9:55 PM 14.9 °F 0.9 °F 8.8 °F 77% 30.21 in 7.0 mi North 12.7 mph - N/A Snow Light Snow
10:15 PM 14.7 °F 2.1 °F 8.2 °F 75% 30.21 in 10.0 mi North 10.4 mph - N/A   Overcast
10:35 PM 14.9 °F 3.1 °F 8.2 °F 75% 30.23 in 10.0 mi North 9.2 mph - N/A   Overcast
10:55 PM 14.7 °F 0.7 °F 6.8 °F 71% 30.23 in 10.0 mi North 12.7 mph - N/A   Overcast
11:15 PM 14.7 °F 0.1 °F 6.8 °F 71% 30.23 in 10.0 mi North 13.8 mph - N/A   Overcast
11:35 PM 14.7 °F 2.9 °F 6.4 °F 70% 30.23 in 10.0 mi North 9.2 mph - N/A   Overcast
11:55 PM 14.5 °F -0.7 °F 5.9 °F 69% 30.23 in 10.0 mi North 15.0 mph 21.9 mph N/A   Overcast